| time (UTC) | temp C | wind direction | speed KPH | gust KPH | rain 1hr cm | rain 24hr cm | rain mn cm | humidity % | barometer mb |
| 20260905202103 | 25 | 8 | 4.8 | 8.0 | 0.00 | 0.00 | 0.00 | 59 | 1008.8 |
| 20260905201603 | 26 | 4 | 3.2 | 4.8 | 0.00 | 0.00 | 0.00 | 57 | 1008.8 |
| 20260905201105 | 26 | 315 | 6.4 | 12.9 | 0.00 | 0.00 | 0.00 | 56 | 1008.8 |
| 20260905200104 | 27 | 357 | 1.6 | 8.0 | 0.00 | 0.00 | 0.00 | 55 | 1008.8 |
| 20260905195603 | 27 | 344 | 3.2 | 11.3 | 0.00 | 0.00 | 0.00 | 55 | 1008.8 |
| 20260905195104 | 27 | 306 | 3.2 | 12.9 | 0.00 | 0.00 | 0.00 | 58 | 1008.8 |
| 20260905194103 | 26 | 348 | 1.6 | 8.0 | 0.00 | 0.00 | 0.00 | 57 | 1008.7 |
| 20260905193603 | 27 | 342 | 3.2 | 8.0 | 0.00 | 0.00 | 0.00 | 59 | 1008.6 |
| 20260905193104 | 27 | 344 | 3.2 | 11.3 | 0.00 | 0.00 | 0.00 | 58 | 1008.7 |
| 20260905192604 | 27 | 245 | 3.2 | 8.0 | 0.00 | 0.00 | 0.00 | 57 | 1008.8 |
| 20260905191603 | 26 | 318 | 3.2 | 8.0 | 0.00 | 0.00 | 0.00 | 60 | 1009.1 |
| 20260905191103 | 26 | 27 | 4.8 | 9.7 | 0.00 | 0.00 | 0.00 | 60 | 1009.1 |
| 20260905190604 | 26 | 282 | 3.2 | 12.9 | 0.00 | 0.00 | 0.00 | 57 | 1009.1 |
| 20260905190103 | 26 | 317 | 1.6 | 9.7 | 0.00 | 0.00 | 0.00 | 60 | 1009.1 |
| 20260905185603 | 26 | 253 | 3.2 | 9.7 | 0.00 | 0.00 | 0.00 | 56 | 1009.1 |
| 20260905185103 | 27 | 288 | 3.2 | 8.0 | 0.00 | 0.00 | 0.00 | 61 | 1009.1 |
| 20260905184603 | 26 | 303 | 4.8 | 11.3 | 0.00 | 0.00 | 0.00 | 58 | 1009.0 |
| 20260905184104 | 26 | 302 | 4.8 | 9.7 | 0.00 | 0.00 | 0.00 | 56 | 1009.2 |
| 20260905183604 | 26 | 26 | 1.6 | 12.9 | 0.00 | 0.00 | 0.00 | 58 | 1009.2 |
| 20260905183103 | 26 | 300 | 1.6 | 12.9 | 0.00 | 0.00 | 0.00 | 64 | 1009.3 |
| 20260905182604 | 26 | 29 | 1.6 | 8.0 | 0.00 | 0.00 | 0.00 | 61 | 1009.3 |
| 20260905181603 | 25 | 359 | 1.6 | 4.8 | 0.00 | 0.00 | 0.00 | 62 | 1009.6 |
| 20260905181103 | 25 | 321 | 4.8 | 11.3 | 0.00 | 0.00 | 0.00 | 58 | 1009.6 |
| 20260905180604 | 26 | 357 | 3.2 | 8.0 | 0.00 | 0.00 | 0.00 | 60 | 1009.6 |
| 20260905180103 | 26 | 297 | 4.8 | 11.3 | 0.00 | 0.00 | 0.00 | 63 | 1009.6 |
| 20260905175603 | 26 | 309 | 4.8 | 9.7 | 0.00 | 0.00 | 0.00 | 60 | 1009.6 |
| 20260905174603 | 26 | 334 | 4.8 | 9.7 | 0.00 | 0.00 | 0.00 | 61 | 1009.6 |
| 20260905173604 | 26 | 350 | 1.6 | 4.8 | 0.00 | 0.00 | 0.00 | 65 | 1009.7 |
| 20260905173103 | 26 | 317 | 3.2 | 8.0 | 0.00 | 0.00 | 0.00 | 62 | 1009.7 |
| 20260905172604 | 26 | 38 | 1.6 | 9.7 | 0.00 | 0.00 | 0.00 | 64 | 1009.7 |
| 20260905172103 | 26 | 34 | 3.2 | 8.0 | 0.00 | 0.00 | 0.00 | 63 | 1009.7 |
| 20260905171604 | 25 | 242 | 1.6 | 4.8 | 0.00 | 0.00 | 0.00 | 64 | 1009.7 |
| 20260905171103 | 25 | 328 | 3.2 | 9.7 | 0.00 | 0.00 | 0.00 | 66 | 1009.8 |
| 20260905170604 | 25 | 14 | 1.6 | 4.8 | 0.00 | 0.00 | 0.00 | 64 | 1009.7 |
| 20260905165604 | 25 | 61 | 4.8 | 11.3 | 0.00 | 0.00 | 0.00 | 66 | 1009.7 |
| 20260905165103 | 24 | 26 | 3.2 | 4.8 | 0.00 | 0.00 | 0.00 | 69 | 1009.8 |
| 20260905164103 | 23 | 320 | 3.2 | 4.8 | 0.00 | 0.00 | 0.00 | 70 | 1009.8 |
| 20260905163103 | 23 | 355 | 3.2 | 4.8 | 0.00 | 0.00 | 0.00 | 69 | 1009.8 |
| 20260905162604 | 23 | 0 | 3.2 | 8.0 | 0.00 | 0.00 | 0.00 | 70 | 1009.8 |
| 20260905162104 | 24 | 58 | 3.2 | 4.8 | 0.00 | 0.00 | 0.00 | 69 | 1009.7 |
| 20260905161604 | 25 | 48 | 3.2 | 8.0 | 0.00 | 0.00 | 0.00 | 69 | 1009.7 |
| 20260905161104 | 25 | 328 | 3.2 | 9.7 | 0.00 | 0.00 | 0.00 | 69 | 1009.7 |
| 20260905160603 | 25 | 73 | 6.4 | 11.3 | 0.00 | 0.00 | 0.00 | 68 | 1009.7 |
| 20260905160104 | 25 | 330 | 4.8 | 11.3 | 0.00 | 0.00 | 0.00 | 70 | 1009.8 |
| 20260905155604 | 25 | 9 | 4.8 | 8.0 | 0.00 | 0.00 | 0.00 | 68 | 1009.8 |
| 20260905155103 | 25 | 5 | 4.8 | 9.7 | 0.00 | 0.00 | 0.00 | 69 | 1009.8 |
| 20260905154603 | 25 | 317 | 4.8 | 11.3 | 0.00 | 0.00 | 0.00 | 68 | 1009.9 |
| 20260905154104 | 25 | 337 | 3.2 | 12.9 | 0.00 | 0.00 | 0.00 | 72 | 1009.8 |
| 20260905153603 | 24 | 317 | 4.8 | 12.9 | 0.00 | 0.00 | 0.00 | 69 | 1009.9 |
| 20260905152603 | 24 | 319 | 3.2 | 11.3 | 0.00 | 0.00 | 0.00 | 71 | 1009.9 |
| 20260905152104 | 24 | 312 | 4.8 | 14.5 | 0.00 | 0.00 | 0.00 | 69 | 1009.8 |
| 20260905151603 | 25 | 294 | 3.2 | 9.7 | 0.00 | 0.00 | 0.00 | 71 | 1009.9 |
| 20260905151103 | 24 | 34 | 3.2 | 4.8 | 0.00 | 0.00 | 0.00 | 71 | 1009.9 |
| 20260905150603 | 25 | 328 | 3.2 | 4.8 | 0.00 | 0.00 | 0.00 | 70 | 1009.9 |
| 20260905150103 | 24 | 328 | 4.8 | 11.3 | 0.00 | 0.00 | 0.00 | 70 | 1009.9 |
| 20260905145604 | 24 | 8 | 3.2 | 11.3 | 0.00 | 0.00 | 0.00 | 72 | 1009.9 |
| 20260905145104 | 23 | 18 | 4.8 | 8.0 | 0.00 | 0.00 | 0.00 | 71 | 1009.9 |
| 20260905144604 | 23 | 332 | 3.2 | 9.7 | 0.00 | 0.00 | 0.00 | 72 | 1009.9 |
| 20260905144103 | 23 | 327 | 3.2 | 8.0 | 0.00 | 0.00 | 0.00 | 70 | 1010.0 |
| 20260905143604 | 23 | 29 | 3.2 | 4.8 | 0.00 | 0.00 | 0.00 | 73 | 1010.0 |
| 20260905143103 | 22 | 284 | 3.2 | 8.0 | 0.00 | 0.00 | 0.00 | 73 | 1010.0 |
| 20260905142603 | 22 | 40 | 3.2 | 4.8 | 0.00 | 0.00 | 0.00 | 74 | 1009.9 |
| 20260905142103 | 22 | 51 | 4.8 | 8.0 | 0.00 | 0.00 | 0.00 | 74 | 1009.9 |
| 20260905141604 | 22 | 52 | 4.8 | 9.7 | 0.00 | 0.00 | 0.00 | 73 | 1010.0 |
| 20260905140603 | 22 | 50 | 6.4 | 12.9 | 0.00 | 0.00 | 0.00 | 72 | 1010.0 |
| 20260905140104 | 23 | 43 | 4.8 | 8.0 | 0.00 | 0.00 | 0.00 | 71 | 1010.0 |
| 20260905135603 | 23 | 64 | 8.0 | 14.5 | 0.00 | 0.00 | 0.00 | 71 | 1010.0 |
| 20260905135103 | 23 | 76 | 8.0 | 14.5 | 0.00 | 0.00 | 0.00 | 72 | 1010.0 |
| 20260905134603 | 23 | 23 | 8.0 | 12.9 | 0.00 | 0.00 | 0.00 | 70 | 1010.0 |
| 20260905134104 | 23 | 49 | 4.8 | 12.9 | 0.00 | 0.00 | 0.00 | 73 | 1010.0 |
| 20260905133603 | 23 | 45 | 4.8 | 11.3 | 0.00 | 0.00 | 0.00 | 71 | 1010.0 |
| 20260905133103 | 23 | 54 | 3.2 | 11.3 | 0.00 | 0.00 | 0.00 | 74 | 1010.0 |
| 20260905131603 | 22 | 41 | 4.8 | 11.3 | 0.00 | 0.00 | 0.00 | 72 | 1010.1 |
| 20260905131104 | 22 | 51 | 8.0 | 12.9 | 0.00 | 0.00 | 0.00 | 71 | 1010.1 |
| 20260905125604 | 23 | 343 | 4.8 | 8.0 | 0.00 | 0.00 | 0.00 | 74 | 1010.1 |
| 20260905125103 | 22 | 25 | 6.4 | 12.9 | 0.00 | 0.00 | 0.00 | 74 | 1010.1 |
| 20260905124603 | 22 | 340 | 3.2 | 8.0 | 0.00 | 0.00 | 0.00 | 73 | 1010.1 |
| 20260905123604 | 22 | 0 | 4.8 | 9.7 | 0.00 | 0.00 | 0.00 | 74 | 1010.2 |
| 20260905123103 | 22 | 24 | 4.8 | 8.0 | 0.00 | 0.00 | 0.00 | 76 | 1010.1 |
| 20260905122603 | 21 | 351 | 4.8 | 9.7 | 0.00 | 0.00 | 0.00 | 76 | 1010.1 |
| 20260905122104 | 21 | 0 | 3.2 | 12.9 | 0.00 | 0.00 | 0.00 | 76 | 1010.3 |
| 20260905121603 | 21 | 347 | 6.4 | 12.9 | 0.00 | 0.00 | 0.00 | 76 | 1010.0 |
| 20260905120603 | 21 | 332 | 8.0 | 14.5 | 0.00 | 0.00 | 0.00 | 77 | 1010.0 |
| 20260905114604 | 20 | 338 | 8.0 | 12.9 | 0.00 | 0.00 | 0.00 | 79 | 1010.0 |
| 20260905114103 | 20 | 310 | 4.8 | 14.5 | 0.00 | 0.00 | 0.00 | 78 | 1010.0 |
| 20260905113603 | 20 | 276 | 1.6 | 11.3 | 0.00 | 0.00 | 0.00 | 79 | 1009.8 |
| 20260905112604 | 20 | 302 | 4.8 | 9.7 | 0.00 | 0.00 | 0.00 | 78 | 1009.7 |
| 20260905111604 | 20 | 341 | 1.6 | 8.0 | 0.00 | 0.00 | 0.00 | 78 | 1009.7 |
| 20260905111104 | 20 | 34 | 1.6 | 8.0 | 0.00 | 0.00 | 0.00 | 78 | 1009.7 |
| 20260905110603 | 20 | 314 | 4.8 | 14.5 | 0.00 | 0.00 | 0.00 | 78 | 1009.6 |
| 20260905105604 | 20 | 353 | 4.8 | 9.7 | 0.00 | 0.00 | 0.00 | 78 | 1009.4 |
| 20260905105103 | 20 | 38 | 1.6 | 9.7 | 0.00 | 0.00 | 0.00 | 78 | 1009.4 |
| 20260905104104 | 20 | 22 | 1.6 | 12.9 | 0.00 | 0.00 | 0.00 | 77 | 1009.2 |
| 20260905103604 | 20 | 38 | 3.2 | 14.5 | 0.00 | 0.00 | 0.00 | 77 | 1009.2 |
| 20260905103103 | 20 | 349 | 4.8 | 11.3 | 0.00 | 0.00 | 0.00 | 76 | 1009.3 |
| 20260905102104 | 20 | 20 | 3.2 | 9.7 | 0.00 | 0.00 | 0.00 | 76 | 1009.3 |
| 20260905101603 | 20 | 330 | 4.8 | 11.3 | 0.00 | 0.00 | 0.00 | 76 | 1009.1 |
| 20260905100605 | 20 | 19 | 4.8 | 12.9 | 0.00 | 0.00 | 0.00 | 76 | 1009.1 |
| 20260905095604 | 21 | 24 | 4.8 | 11.3 | 0.00 | 0.00 | 0.00 | 76 | 1009.2 |
| 20260905095103 | 21 | 8 | 4.8 | 12.9 | 0.00 | 0.00 | 0.00 | 75 | 1009.0 |
| 20260905094604 | 21 | 12 | 8.0 | 19.3 | 0.00 | 0.00 | 0.00 | 75 | 1009.0 |
| 20260905093604 | 21 | 28 | 9.7 | 22.5 | 0.00 | 0.00 | 0.00 | 75 | 1008.9 |
| 20260905093103 | 21 | 44 | 9.7 | 19.3 | 0.00 | 0.00 | 0.00 | 75 | 1008.9 |
| 20260905092603 | 21 | 36 | 4.8 | 16.1 | 0.00 | 0.00 | 0.00 | 75 | 1008.8 |
| 20260905092103 | 21 | 36 | 4.8 | 14.5 | 0.00 | 0.00 | 0.00 | 75 | 1008.8 |
| 20260905091603 | 21 | 17 | 4.8 | 19.3 | 0.00 | 0.00 | 0.00 | 74 | 1008.8 |
| 20260905091103 | 21 | 5 | 8.0 | 19.3 | 0.00 | 0.00 | 0.00 | 74 | 1008.8 |
| 20260905090604 | 21 | 4 | 3.2 | 16.1 | 0.00 | 0.00 | 0.00 | 74 | 1008.8 |
| 20260905090103 | 21 | 47 | 8.0 | 19.3 | 0.00 | 0.00 | 0.00 | 74 | 1008.8 |
| 20260905085103 | 21 | 19 | 8.0 | 16.1 | 0.00 | 0.00 | 0.00 | 74 | 1008.8 |
| 20260905084604 | 21 | 44 | 6.4 | 19.3 | 0.00 | 0.00 | 0.00 | 74 | 1008.8 |
| 20260905084104 | 21 | 32 | 9.7 | 19.3 | 0.00 | 0.00 | 0.00 | 74 | 1008.8 |
| 20260905083604 | 21 | 30 | 8.0 | 19.3 | 0.00 | 0.00 | 0.00 | 74 | 1008.8 |
| 20260905083103 | 21 | 25 | 9.7 | 16.1 | 0.00 | 0.00 | 0.00 | 74 | 1008.7 |
| 20260905082604 | 21 | 10 | 8.0 | 14.5 | 0.00 | 0.00 | 0.00 | 74 | 1008.8 |
| 20260905082103 | 21 | 14 | 6.4 | 9.7 | 0.00 | 0.00 | 0.00 | 74 | 1008.7 |
| 20260905081103 | 21 | 17 | 3.2 | 20.9 | 0.00 | 0.00 | 0.00 | 74 | 1008.7 |
| 20260905080603 | 21 | 0 | 4.8 | 12.9 | 0.00 | 0.00 | 0.00 | 73 | 1008.7 |
| 20260905080104 | 21 | 31 | 9.7 | 19.3 | 0.00 | 0.00 | 0.00 | 73 | 1008.7 |
| 20260905075603 | 21 | 26 | 4.8 | 14.5 | 0.00 | 0.00 | 0.00 | 74 | 1008.7 |
| 20260905075104 | 21 | 26 | 8.0 | 16.1 | 0.00 | 0.00 | 0.00 | 73 | 1008.7 |
| 20260905073603 | 21 | 42 | 9.7 | 19.3 | 0.00 | 0.00 | 0.00 | 73 | 1008.5 |
| 20260905073103 | 21 | 42 | 9.7 | 20.9 | 0.00 | 0.00 | 0.00 | 73 | 1008.5 |
| 20260905072604 | 21 | 27 | 8.0 | 19.3 | 0.00 | 0.00 | 0.00 | 73 | 1008.5 |
| 20260905072103 | 21 | 53 | 6.4 | 19.3 | 0.00 | 0.00 | 0.00 | 73 | 1008.8 |
| 20260905071603 | 21 | 42 | 8.0 | 19.3 | 0.00 | 0.00 | 0.00 | 73 | 1008.8 |
| 20260905071104 | 21 | 37 | 8.0 | 16.1 | 0.00 | 0.00 | 0.00 | 73 | 1008.8 |
| 20260905070603 | 21 | 356 | 9.7 | 19.3 | 0.00 | 0.00 | 0.00 | 73 | 1008.8 |
| 20260905065103 | 21 | 40 | 4.8 | 11.3 | 0.00 | 0.00 | 0.00 | 74 | 1009.0 |
| 20260905064611 | 21 | 37 | 4.8 | 9.7 | 0.00 | 0.00 | 0.00 | 74 | 1009.0 |
| 20260905063604 | 21 | 1 | 4.8 | 16.1 | 0.00 | 0.00 | 0.00 | 74 | 1009.0 |
| 20260905063104 | 21 | 19 | 4.8 | 14.5 | 0.00 | 0.00 | 0.00 | 74 | 1009.0 |
| 20260905062603 | 21 | 35 | 4.8 | 19.3 | 0.00 | 0.00 | 0.00 | 74 | 1009.0 |
| 20260905061604 | 21 | 20 | 4.8 | 14.5 | 0.00 | 0.05 | 0.00 | 76 | 1008.9 |
| 20260905061104 | 21 | 356 | 3.2 | 8.0 | 0.00 | 0.05 | 0.00 | 76 | 1009.0 |
| 20260905060603 | 21 | 40 | 4.8 | 12.9 | 0.00 | 0.05 | 0.00 | 77 | 1009.1 |
| 20260905060103 | 21 | 26 | 6.4 | 14.5 | 0.00 | 0.08 | 0.00 | 77 | 1009.2 |
| 20260905055604 | 21 | 49 | 4.8 | 11.3 | 0.00 | 0.84 | 0.00 | 78 | 1009.3 |
| 20260905055103 | 21 | 42 | 4.8 | 14.5 | 0.00 | 2.11 | 0.00 | 79 | 1009.3 |
| 20260905054603 | 21 | 37 | 3.2 | 4.8 | 0.00 | 2.62 | 0.00 | 81 | 1009.3 |
| 20260905054104 | 21 | 331 | 0.0 | 4.8 | 0.00 | 2.62 | 0.00 | 81 | 1009.6 |
| 20260905053603 | 21 | 46 | 3.2 | 8.0 | 0.00 | 2.62 | 0.00 | 82 | 1009.6 |
| 20260905053103 | 21 | 22 | 1.6 | 4.8 | 0.00 | 2.62 | 0.00 | 83 | 1009.6 |
| 20260905052603 | 21 | 61 | 1.6 | 4.8 | 0.00 | 2.62 | 0.00 | 84 | 1009.6 |
| 20260905052103 | 21 | 67 | 1.6 | 4.8 | 0.00 | 2.62 | 0.00 | 84 | 1009.6 |
| 20260905051604 | 21 | 38 | 1.6 | 4.8 | 0.00 | 2.62 | 0.00 | 84 | 1009.6 |
| 20260905051104 | 21 | 51 | 3.2 | 4.8 | 0.00 | 2.62 | 0.00 | 84 | 1009.6 |
| 20260905050103 | 21 | 78 | 0.0 | 1.6 | 0.00 | 2.62 | 0.00 | 84 | 1009.7 |
| 20260905045603 | 21 | 78 | 0.0 | 1.6 | 0.00 | 2.62 | 0.00 | 85 | 1009.7 |
| 20260905045103 | 21 | 78 | 0.0 | 3.2 | 0.00 | 2.62 | 0.00 | 85 | 1009.7 |
| 20260905044604 | 21 | 78 | 0.0 | 4.8 | 0.00 | 2.62 | 0.00 | 85 | 1009.7 |
| 20260905044104 | 21 | 35 | 1.6 | 4.8 | 0.00 | 2.62 | 0.00 | 85 | 1009.8 |
| 20260905043603 | 21 | 46 | 0.0 | 3.2 | 0.00 | 2.62 | 0.00 | 85 | 1009.8 |
| 20260905043103 | 21 | 143 | 0.0 | 3.2 | 0.00 | 2.62 | 0.00 | 85 | 1009.8 |
| 20260905042604 | 21 | 209 | 0.0 | 4.8 | 0.00 | 2.62 | 0.00 | 85 | 1009.8 |
| 20260905042104 | 21 | 98 | 0.0 | 1.6 | 0.00 | 2.62 | 0.00 | 85 | 1009.8 |
| 20260905041604 | 21 | 51 | 0.0 | 4.8 | 0.00 | 2.62 | 0.00 | 85 | 1009.9 |
| 20260905041104 | 22 | 134 | 1.6 | 3.2 | 0.00 | 2.62 | 0.00 | 85 | 1009.9 |
| 20260905040604 | 22 | 351 | 0.0 | 0.0 | 0.00 | 2.62 | 0.00 | 85 | 1010.0 |
| 20260905040103 | 22 | 351 | 1.6 | 4.8 | 0.00 | 2.62 | 0.00 | 86 | 1010.0 |
| 20260905035604 | 22 | 331 | 1.6 | 3.2 | 0.00 | 2.62 | 2.62 | 86 | 1010.0 |
| 20260905035103 | 22 | 331 | 1.6 | 4.8 | 0.00 | 2.62 | 2.62 | 86 | 1010.0 |
| 20260905034103 | 21 | 306 | 1.6 | 4.8 | 0.00 | 2.62 | 2.62 | 86 | 1010.0 |
| 20260905033603 | 21 | 285 | 3.2 | 4.8 | 0.00 | 2.62 | 2.62 | 86 | 1010.0 |
| 20260905032604 | 21 | 297 | 1.6 | 4.8 | 0.00 | 2.62 | 2.62 | 86 | 1010.0 |
| 20260905032104 | 21 | 290 | 1.6 | 4.8 | 0.00 | 2.62 | 2.62 | 86 | 1010.0 |
| 20260905031103 | 21 | 279 | 1.6 | 4.8 | 0.00 | 2.62 | 2.62 | 86 | 1009.9 |
| 20260905025603 | 21 | 315 | 1.6 | 4.8 | 0.00 | 2.62 | 2.62 | 86 | 1009.6 |
| 20260905025103 | 21 | 299 | 1.6 | 4.8 | 0.00 | 2.62 | 2.62 | 85 | 1009.8 |
| 20260905024603 | 21 | 214 | 0.0 | 1.6 | 0.00 | 2.62 | 2.62 | 85 | 1009.8 |
| 20260905024103 | 21 | 214 | 0.0 | 0.0 | 0.00 | 2.62 | 2.62 | 85 | 1009.8 |
| 20260905023604 | 21 | 214 | 0.0 | 0.0 | 0.00 | 2.62 | 2.62 | 85 | 1009.8 |
| 20260905023103 | 21 | 214 | 0.0 | 1.6 | 0.00 | 2.62 | 2.62 | 85 | 1009.8 |
| 20260905022604 | 21 | 214 | 0.0 | 3.2 | 0.00 | 2.62 | 2.62 | 85 | 1009.8 |
| 20260905022103 | 21 | 214 | 1.6 | 4.8 | 0.00 | 2.62 | 2.62 | 85 | 1009.8 |
| 20260905021604 | 21 | 214 | 0.0 | 3.2 | 0.00 | 2.62 | 2.62 | 85 | 1009.9 |
| 20260905021103 | 21 | 214 | 0.0 | 4.8 | 0.00 | 2.62 | 2.62 | 85 | 1009.9 |
| 20260905020104 | 21 | 221 | 1.6 | 3.2 | 0.00 | 2.62 | 2.62 | 85 | 1009.9 |
| 20260905015604 | 21 | 231 | 0.0 | 0.0 | 0.00 | 2.62 | 2.62 | 85 | 1009.9 |
| 20260905015104 | 21 | 231 | 0.0 | 0.0 | 0.00 | 2.62 | 2.62 | 84 | 1009.9 |
| 20260905014603 | 21 | 233 | 0.0 | 0.0 | 0.00 | 2.62 | 2.62 | 84 | 1009.9 |
| 20260905014103 | 21 | 235 | 0.0 | 0.0 | 0.00 | 2.62 | 2.62 | 84 | 1009.9 |
| 20260905013604 | 21 | 232 | 0.0 | 0.0 | 0.00 | 2.62 | 2.62 | 83 | 1009.9 |
| 20260905013104 | 22 | 217 | 0.0 | 0.0 | 0.00 | 2.62 | 2.62 | 83 | 1009.9 |
| 20260905012604 | 22 | 222 | 0.0 | 0.0 | 0.00 | 2.62 | 2.62 | 82 | 1009.9 |
| 20260905012103 | 22 | 217 | 0.0 | 0.0 | 0.00 | 2.62 | 2.62 | 82 | 1009.9 |
| 20260905011603 | 22 | 216 | 0.0 | 0.0 | 0.00 | 2.62 | 2.62 | 81 | 1010.0 |
| 20260905011103 | 22 | 217 | 0.0 | 0.0 | 0.00 | 2.62 | 2.62 | 80 | 1010.0 |
| 20260905010104 | 22 | 217 | 0.0 | 0.0 | 0.00 | 2.62 | 2.62 | 79 | 1010.1 |
| 20260905005603 | 22 | 216 | 1.6 | 4.8 | 0.00 | 2.62 | 2.62 | 79 | 1010.1 |
| 20260905005103 | 22 | 230 | 1.6 | 4.8 | 0.00 | 2.62 | 2.62 | 78 | 1009.9 |
| 20260905004103 | 23 | 306 | 0.0 | 3.2 | 0.00 | 2.62 | 2.62 | 78 | 1009.9 |
| 20260905003603 | 23 | 306 | 0.0 | 3.2 | 0.00 | 2.62 | 2.62 | 77 | 1009.9 |
| 20260905002604 | 23 | 263 | 0.0 | 3.2 | 0.00 | 2.62 | 2.62 | 77 | 1009.9 |
| 20260905002104 | 23 | 257 | 0.0 | 4.8 | 0.00 | 2.62 | 2.62 | 77 | 1009.9 |
| 20260905001603 | 23 | 285 | 1.6 | 4.8 | 0.00 | 2.62 | 2.62 | 76 | 1009.9 |
| 20260905001103 | 23 | 220 | 1.6 | 4.8 | 0.00 | 2.62 | 2.62 | 76 | 1009.8 |
| 20260905000104 | 23 | 275 | 0.0 | 3.2 | 0.00 | 2.62 | 2.62 | 73 | 1009.8 |
| 20260904235104 | 24 | 275 | 1.6 | 4.8 | 0.00 | 2.62 | 2.62 | 74 | 1009.8 |
| 20260904234604 | 24 | 285 | 0.0 | 3.2 | 0.00 | 2.62 | 2.62 | 73 | 1009.8 |
| 20260904234104 | 24 | 264 | 1.6 | 3.2 | 0.00 | 2.62 | 2.62 | 73 | 1009.8 |
| 20260904233603 | 24 | 246 | 0.0 | 4.8 | 0.00 | 2.62 | 2.62 | 72 | 1009.7 |
| 20260904232603 | 25 | 290 | 1.6 | 4.8 | 0.00 | 2.62 | 2.62 | 71 | 1009.5 |
| 20260904232103 | 25 | 226 | 0.0 | 4.8 | 0.00 | 2.62 | 2.62 | 70 | 1009.5 |
| 20260904231603 | 25 | 204 | 1.6 | 3.2 | 0.00 | 2.62 | 2.62 | 69 | 1009.5 |
| 20260904231104 | 25 | 283 | 1.6 | 4.8 | 0.00 | 2.62 | 2.62 | 69 | 1009.5 |
| 20260904230604 | 25 | 293 | 3.2 | 4.8 | 0.00 | 2.62 | 2.62 | 67 | 1009.5 |
| 20260904225604 | 26 | 345 | 4.8 | 8.0 | 0.00 | 2.62 | 2.62 | 66 | 1009.5 |
| 20260904224603 | 26 | 313 | 3.2 | 9.7 | 0.00 | 2.62 | 2.62 | 66 | 1009.6 |
| 20260904224103 | 26 | 290 | 3.2 | 4.8 | 0.00 | 2.62 | 2.62 | 65 | 1009.6 |
| 20260904223104 | 26 | 306 | 3.2 | 4.8 | 0.00 | 2.62 | 2.62 | 65 | 1009.6 |
| 20260904222604 | 26 | 296 | 3.2 | 4.8 | 0.00 | 2.62 | 2.62 | 65 | 1009.6 |
| 20260904222103 | 26 | 288 | 3.2 | 9.7 | 0.00 | 2.62 | 2.62 | 65 | 1009.6 |
| 20260904221604 | 26 | 302 | 3.2 | 8.0 | 0.00 | 2.62 | 2.62 | 65 | 1009.6 |
| 20260904221103 | 26 | 310 | 4.8 | 9.7 | 0.00 | 2.62 | 2.62 | 64 | 1009.6 |
| 20260904220603 | 26 | 326 | 3.2 | 8.0 | 0.00 | 2.62 | 2.62 | 65 | 1009.6 |
| 20260904220104 | 26 | 286 | 3.2 | 4.8 | 0.00 | 2.62 | 2.62 | 64 | 1009.5 |
| 20260904215603 | 26 | 319 | 4.8 | 8.0 | 0.00 | 2.62 | 2.62 | 64 | 1009.5 |
| 20260904215103 | 27 | 335 | 1.6 | 9.7 | 0.00 | 2.62 | 2.62 | 66 | 1009.5 |
| 20260904214604 | 27 | 31 | 1.6 | 8.0 | 0.00 | 2.62 | 2.62 | 66 | 1009.5 |
| 20260904213104 | 27 | 356 | 1.6 | 4.8 | 0.00 | 2.62 | 2.62 | 63 | 1009.5 |
| 20260904212604 | 27 | 39 | 3.2 | 8.0 | 0.00 | 2.62 | 2.62 | 64 | 1009.5 |
| 20260904212103 | 27 | 28 | 1.6 | 4.8 | 0.00 | 2.62 | 2.62 | 64 | 1009.5 |
| 20260904211603 | 27 | 350 | 1.6 | 8.0 | 0.00 | 2.62 | 2.62 | 64 | 1009.5 |
| 20260904211104 | 27 | 324 | 1.6 | 9.7 | 0.00 | 2.62 | 2.62 | 65 | 1009.5 |
| 20260904205604 | 27 | 321 | 3.2 | 12.9 | 0.00 | 2.62 | 2.62 | 61 | 1009.7 |
| 20260904205104 | 27 | 320 | 6.4 | 12.9 | 0.00 | 2.62 | 2.62 | 59 | 1009.7 |
| 20260904204604 | 27 | 8 | 3.2 | 4.8 | 0.00 | 2.62 | 2.62 | 61 | 1009.7 |
| 20260904203603 | 28 | 2 | 3.2 | 8.0 | 0.00 | 2.62 | 2.62 | 62 | 1009.7 |
| 20260904203103 | 28 | 335 | 4.8 | 9.7 | 0.00 | 2.62 | 2.62 | 62 | 1009.7 |
| 20260904202603 | 28 | 354 | 3.2 | 8.0 | 0.00 | 2.62 | 2.62 | 61 | 1009.8 |